FW6313 Weather Reports


time (UTC)temp
C
wind
direction
speed
KPH
gust
KPH
rain 1hr
cm
rain 24hr
cm
rain mn
cm
humidity
%
barometer
mb
20260507160013 3 21 0.0 8.0 0.00 1.32 0.00 61 1020.5
20260507155509 3 21 3.2 8.0 0.00 1.32 0.00 60 1020.5
20260507155011 3 21 3.2 6.4 0.00 1.32 0.00 60 1020.6
20260507154508 3 21 1.6 6.4 0.00 1.32 0.00 60 1020.7
20260507154009 3 21 1.6 4.8 0.00 1.32 0.00 61 1020.7
20260507153508 3 21 1.6 4.8 0.00 1.32 0.00 61 1020.8
20260507153006 3 21 0.0 0.0 0.00 1.32 0.00 63 1020.8
20260507152505 2 21 0.0 4.8 0.00 1.32 0.00 60 1020.8
20260507152004 2 21 0.0 8.0 0.00 1.32 0.00 60 1020.9
20260507151504 2 20 3.2 8.0 0.00 1.32 0.00 62 1021.0
20260507151002 2 5 1.6 8.0 0.00 1.32 0.00 64 1021.0
20260507150502 1 12 3.2 9.7 0.00 1.32 0.00 64 1021.0
20260507150109 1 320 0.0 9.7 0.00 1.32 0.00 64 1021.2
20260507145558 0 11 1.6 8.0 0.00 1.32 0.00 68 1021.0
20260507145102 0 26 3.2 9.7 0.00 1.32 0.00 71 1020.9
20260507144556 0 26 4.8 9.7 0.00 1.32 0.00 69 1021.0
20260507144055 0 12 4.8 9.7 0.00 1.32 0.00 68 1021.0
20260507143555 0 62 0.0 0.0 0.00 1.32 0.00 67 1020.8
20260507143058 0 62 0.0 4.8 0.00 1.32 0.00 69 1020.6
20260507142553 0 62 1.6 4.8 0.00 1.32 0.00 70 1020.7
20260507142053 0 62 1.6 4.8 0.00 1.32 0.00 73 1020.9
20260507141553 0 62 0.0 0.0 0.00 1.32 0.00 72 1020.9
20260507141053 -1 62 0.0 0.0 0.00 1.32 0.00 72 1020.8
20260507140552 -1 62 0.0 0.0 0.00 1.32 0.00 72 1021.0
20260507140053 -1 62 0.0 0.0 0.00 1.32 0.00 72 1021.0
20260507135556 -1 62 0.0 0.0 0.00 1.32 0.00 72 1021.0
20260507135055 -1 62 0.0 0.0 0.00 1.32 0.00 73 1021.0
20260507134558 -1 62 0.0 0.0 0.00 1.32 0.00 74 1021.0
20260507134052 -1 62 0.0 0.0 0.00 1.32 0.00 71 1020.8
20260507133549 -1 62 0.0 0.0 0.00 1.32 0.00 70 1021.0
20260507133051 -1 62 0.0 0.0 0.00 1.32 0.00 71 1021.0
20260507132549 -1 62 0.0 0.0 0.00 1.32 0.00 71 1021.0
20260507132048 -1 62 0.0 3.2 0.00 1.32 0.00 72 1021.0
20260507131547 -1 62 0.0 3.2 0.00 1.32 0.00 72 1021.0
20260507131047 -1 62 0.0 0.0 0.00 1.32 0.00 71 1021.2
20260507130546 -1 62 0.0 0.0 0.00 1.32 0.00 70 1021.0
20260507130058 -1 62 0.0 0.0 0.00 1.32 0.00 69 1020.9
20260507125546 -1 62 0.0 6.4 0.00 1.32 0.00 70 1020.8
20260507125047 -1 62 3.2 6.4 0.00 1.32 0.00 69 1020.9
20260507124604 -1 62 0.0 0.0 0.00 1.32 0.00 70 1020.9
20260507124046 -1 62 0.0 0.0 0.00 1.32 0.00 72 1020.8
20260507123546 -1 62 0.0 0.0 0.00 1.32 0.00 72 1020.8
20260507123102 -1 62 0.0 0.0 0.00 1.32 0.00 71 1020.8
20260507122543 -1 62 0.0 0.0 0.00 1.32 0.00 70 1020.8
20260507122042 -1 62 0.0 0.0 0.00 1.32 0.00 70 1020.8
20260507121552 -1 62 0.0 0.0 0.00 1.32 0.00 70 1020.7
20260507121042 -1 62 0.0 0.0 0.00 1.32 0.00 70 1020.7
20260507120545 -1 62 0.0 0.0 0.00 1.32 0.00 70 1020.8
20260507120042 -1 62 0.0 0.0 0.00 1.32 0.00 70 1020.8
20260507115540 -1 62 0.0 0.0 0.00 1.32 0.00 71 1020.8
20260507115040 -1 62 0.0 0.0 0.00 1.32 0.00 70 1020.9
20260507114539 -1 62 0.0 0.0 0.00 1.32 0.00 69 1020.8
20260507114039 -1 62 0.0 0.0 0.00 1.32 0.00 70 1020.9
20260507113543 -1 62 0.0 0.0 0.00 1.32 0.00 71 1020.9
20260507113038 -1 62 0.0 0.0 0.00 1.32 0.00 70 1021.0
20260507112540 -1 62 0.0 0.0 0.00 1.32 0.00 68 1021.1
20260507112036 -1 62 0.0 0.0 0.00 1.32 0.00 67 1021.0
20260507111536 -1 62 0.0 0.0 0.00 1.32 0.00 67 1021.1
20260507111036 -1 62 0.0 0.0 0.00 1.32 0.00 67 1021.2
20260507110536 -1 62 0.0 0.0 0.00 1.32 0.00 67 1021.1
20260507110036 -1 62 0.0 0.0 0.00 1.32 0.00 67 1021.0
20260507105535 -1 62 0.0 0.0 0.00 1.32 0.00 67 1021.0
20260507105035 -1 62 0.0 0.0 0.00 1.32 0.00 66 1021.1
20260507104536 -1 62 0.0 0.0 0.00 1.32 0.00 67 1021.1
20260507104039 -1 62 0.0 0.0 0.00 1.32 0.00 66 1021.1
20260507103534 -1 62 0.0 0.0 0.00 1.32 0.00 67 1021.0
20260507103034 -1 62 0.0 0.0 0.00 1.32 0.00 67 1021.1
20260507102534 -1 62 0.0 0.0 0.00 1.32 0.00 67 1021.2
20260507102036 -1 62 0.0 0.0 0.00 1.32 0.00 68 1021.3
20260507101540 -1 62 0.0 0.0 0.00 1.32 0.00 67 1021.2
20260507101033 -1 62 0.0 0.0 0.00 1.32 0.00 67 1021.3
20260507100532 -1 62 0.0 0.0 0.00 1.32 0.00 67 1021.2
20260507100045 -1 62 0.0 0.0 0.00 1.32 0.00 67 1021.3
20260507095532 -1 62 0.0 0.0 0.00 1.32 0.00 66 1021.4
20260507095032 -1 62 0.0 0.0 0.00 1.32 0.00 66 1021.4
20260507094531 -1 62 0.0 0.0 0.00 1.32 0.00 67 1021.4
20260507094031 -1 62 0.0 0.0 0.00 1.32 0.00 67 1021.4
20260507093530 -1 62 0.0 0.0 0.00 1.32 0.00 67 1021.4
20260507093030 -1 62 0.0 0.0 0.00 1.32 0.00 67 1021.5
20260507092530 -1 62 0.0 0.0 0.00 1.32 0.00 66 1021.4
20260507092029 -1 62 0.0 0.0 0.00 1.32 0.00 66 1021.5
20260507091529 -1 62 0.0 4.8 0.00 1.32 0.00 66 1021.5
20260507091029 -1 62 0.0 4.8 0.00 1.32 0.00 66 1021.5
20260507090527 -1 62 0.0 0.0 0.00 1.32 0.00 65 1021.6
20260507090031 -1 62 0.0 0.0 0.00 1.32 0.00 64 1021.5
20260507085529 -1 62 0.0 0.0 0.00 1.32 0.00 64 1021.3
20260507085028 -1 62 0.0 0.0 0.00 1.32 0.00 64 1021.3
20260507084527 -1 62 0.0 0.0 0.00 1.32 0.00 63 1021.4
20260507084027 -1 62 0.0 0.0 0.00 1.32 0.00 63 1021.4
20260507083526 -1 62 0.0 0.0 0.00 1.32 0.00 63 1021.4
20260507083029 -1 62 0.0 0.0 0.00 1.32 0.00 64 1021.5
20260507082526 -1 62 0.0 0.0 0.00 1.32 0.00 64 1021.6
20260507082024 -1 62 0.0 0.0 0.00 1.32 0.00 64 1021.6
20260507081524 -1 62 0.0 0.0 0.00 1.32 0.00 64 1021.7
20260507081024 -1 62 0.0 0.0 0.00 1.32 0.00 64 1021.7
20260507080525 -1 62 0.0 0.0 0.00 1.32 0.00 64 1021.7
20260507080024 -1 62 0.0 0.0 0.00 1.32 0.00 65 1021.8
20260507075526 -1 62 0.0 0.0 0.00 1.32 0.00 65 1021.7
20260507075022 -1 62 0.0 0.0 0.00 1.32 0.00 62 1021.9
20260507074522 0 62 0.0 0.0 0.00 1.32 0.00 62 1021.8
20260507074021 0 62 0.0 0.0 0.00 1.32 0.00 62 1021.8
20260507073524 0 62 0.0 0.0 0.00 1.32 0.00 63 1021.9
20260507073019 0 62 0.0 0.0 0.00 1.32 0.00 63 1021.9
20260507072519 0 62 0.0 0.0 0.00 1.32 0.00 62 1022.0
20260507072018 0 62 0.0 0.0 0.00 1.32 0.00 62 1021.9
20260507071517 0 62 0.0 8.0 0.00 1.32 0.00 62 1021.8
20260507071020 0 62 0.0 8.0 0.00 1.32 0.00 61 1021.7
20260507070519 0 79 0.0 8.0 0.00 1.32 0.00 60 1021.7
20260507070016 0 80 0.0 4.8 0.00 1.32 0.00 59 1021.8
20260507065519 0 80 0.0 6.4 0.00 1.32 0.00 60 1021.9
20260507065016 0 80 0.0 6.4 0.00 1.32 0.00 59 1021.9
20260507064515 0 161 0.0 0.0 0.00 1.32 0.00 58 1022.0
20260507064013 0 161 0.0 0.0 0.00 1.32 0.00 57 1022.0
20260507063512 0 161 0.0 0.0 0.00 1.32 0.00 55 1022.1
20260507063011 0 161 0.0 0.0 0.00 1.32 0.00 55 1022.1
20260507062510 0 161 0.0 0.0 0.00 1.32 0.00 55 1022.0
20260507062009 0 161 0.0 0.0 0.00 1.32 0.00 58 1021.9
20260507061508 0 161 0.0 0.0 0.00 1.32 0.00 54 1021.9
20260507061008 0 161 0.0 0.0 0.00 1.32 0.00 54 1021.7
20260507060511 0 161 0.0 0.0 0.00 1.32 0.00 54 1021.7
20260507060017 0 161 0.0 0.0 0.00 1.32 0.00 52 1021.6
20260507055505 0 161 0.0 3.2 0.00 1.32 1.32 53 1021.6
20260507055009 0 161 0.0 6.4 0.00 1.32 1.32 55 1021.7
20260507054505 0 161 0.0 0.0 0.00 1.32 1.32 52 1021.7
20260507054005 0 161 0.0 0.0 0.00 1.32 1.32 53 1021.7
20260507053504 0 161 0.0 0.0 0.00 1.32 1.32 54 1021.7
20260507053005 0 161 0.0 0.0 0.00 1.32 1.32 54 1021.6
20260507052504 0 161 0.0 0.0 0.00 1.32 1.32 53 1021.6
20260507052004 0 161 0.0 6.4 0.00 1.32 1.32 54 1021.6
20260507051507 0 161 1.6 6.4 0.00 1.32 1.32 54 1021.7
20260507051004 0 161 0.0 6.4 0.00 1.32 1.32 54 1021.6
20260507050504 1 160 0.0 8.0 0.00 1.32 1.32 54 1021.5
20260507050005 0 164 0.0 4.8 0.00 1.32 1.32 53 1021.5
20260507045504 1 182 0.0 6.4 0.00 1.35 1.32 55 1021.7
20260507045004 1 188 0.0 6.4 0.00 1.35 1.32 54 1021.7
20260507044503 0 194 0.0 0.0 0.00 1.35 1.32 54 1021.6
20260507044003 1 195 0.0 0.0 0.00 1.35 1.32 54 1021.6
20260507043503 1 195 0.0 0.0 0.00 1.35 1.32 52 1021.5
20260507043002 1 254 0.0 0.0 0.00 1.35 1.32 54 1021.8
20260507042501 1 256 0.0 0.0 0.00 1.35 1.32 54 1022.0
20260507042002 1 256 0.0 0.0 0.00 1.35 1.32 53 1022.0
20260507041506 1 256 0.0 0.0 0.00 1.35 1.32 54 1021.9
20260507041003 1 256 0.0 0.0 0.00 1.35 1.32 55 1022.0
20260507040502 1 256 0.0 0.0 0.00 1.35 1.32 55 1021.9
20260507040001 1 256 0.0 0.0 0.00 1.35 1.32 53 1022.0
20260507035600 1 256 0.0 0.0 0.00 1.35 1.32 54 1021.8
20260507035102 1 256 0.0 0.0 0.00 1.35 1.32 54 1021.8
20260507034600 1 256 0.0 0.0 0.00 1.35 1.32 53 1021.8
20260507034059 1 256 0.0 0.0 0.00 1.35 1.32 55 1021.7
20260507033558 1 256 0.0 0.0 0.00 1.35 1.32 54 1021.6
20260507033058 1 256 0.0 0.0 0.00 1.35 1.32 54 1021.5
20260507032557 1 256 0.0 0.0 0.00 1.35 1.32 54 1021.4
20260507032056 1 256 0.0 0.0 0.00 1.35 1.32 54 1021.4
20260507031556 1 256 0.0 0.0 0.00 1.35 1.32 53 1021.3
20260507031059 1 256 0.0 0.0 0.00 1.35 1.32 53 1021.1
20260507030553 1 256 0.0 0.0 0.00 1.35 1.32 53 1021.1
20260507030054 1 256 0.0 0.0 0.00 1.35 1.32 53 1021.0
20260507025600 1 256 0.0 0.0 0.00 1.37 1.32 52 1020.8
20260507025054 1 256 0.0 1.6 0.00 1.37 1.32 52 1020.7
20260507024603 2 256 0.0 1.6 0.00 1.37 1.32 52 1020.6
20260507024051 2 256 0.0 4.8 0.00 1.37 1.32 52 1020.5
20260507023554 2 272 0.0 6.4 0.00 1.37 1.32 51 1020.5
20260507023050 2 272 0.0 6.4 0.00 1.37 1.32 52 1020.5
20260507022554 2 262 0.0 3.2 0.00 1.37 1.32 51 1020.4
20260507022050 2 262 0.0 0.0 0.00 1.37 1.32 51 1020.4
20260507021549 2 263 0.0 4.8 0.00 1.37 1.32 51 1020.4
20260507021049 2 257 0.0 4.8 0.00 1.37 1.32 51 1020.3
20260507020548 2 249 0.0 1.6 0.00 1.37 1.32 51 1020.3
20260507020104 2 232 0.0 9.7 0.00 1.37 1.32 51 1020.2
20260507015546 2 269 0.0 16.1 0.00 1.40 1.32 50 1020.0
20260507015045 2 235 0.0 6.4 0.00 1.40 1.32 50 1019.9
20260507014553 2 267 0.0 9.7 0.00 1.40 1.32 50 1019.9
20260507014045 2 266 0.0 9.7 0.00 1.40 1.32 50 1019.8
20260507013543 3 262 0.0 9.7 0.00 1.40 1.32 51 1019.9
20260507013048 3 207 0.0 9.7 0.00 1.40 1.32 50 1019.8
20260507012543 3 208 0.0 8.0 0.00 1.40 1.32 50 1019.7
20260507012044 3 257 0.0 16.1 0.00 1.40 1.32 48 1019.7
20260507011543 3 266 1.6 19.3 0.00 1.40 1.32 48 1019.8
20260507011043 3 246 0.0 6.4 0.00 1.40 1.32 50 1019.7
20260507010542 3 240 0.0 12.9 0.00 1.40 1.32 49 1019.7
20260507010042 3 211 0.0 12.9 0.00 1.40 1.32 50 1019.7
20260507005542 3 209 0.0 16.1 0.00 1.40 1.32 51 1019.7
20260507005041 3 263 3.2 16.1 0.00 1.40 1.32 47 1019.6
20260507004543 3 182 3.2 17.7 0.00 1.40 1.32 46 1019.5
20260507004039 3 197 1.6 17.7 0.00 1.40 1.32 47 1019.4
20260507003539 3 254 1.6 11.3 0.00 1.40 1.32 51 1019.3
20260507003038 4 265 0.0 9.7 0.00 1.40 1.32 47 1019.2
20260507002538 4 209 0.0 12.9 0.00 1.40 1.32 47 1019.1
20260507002038 4 258 1.6 20.9 0.00 1.40 1.32 47 1019.0
20260507001538 4 186 1.6 20.9 0.00 1.40 1.32 45 1018.9
20260507001037 5 234 1.6 14.5 0.00 1.40 1.32 46 1018.9
20260507000536 5 259 0.0 12.9 0.00 1.40 1.32 49 1018.9
20260507000035 5 269 1.6 17.7 0.00 1.40 1.32 50 1018.8
20260506235536 5 227 3.2 17.7 0.00 1.42 1.32 51 1018.8
20260506235037 5 202 0.0 17.7 0.00 1.42 1.32 52 1018.8
20260506234538 5 223 1.6 29.0 0.00 1.42 1.32 49 1018.7
20260506234034 5 269 3.2 24.1 0.00 1.42 1.32 52 1018.8
20260506233533 5 240 0.0 12.9 0.00 1.42 1.32 52 1018.6
20260506233032 5 230 3.2 12.9 0.00 1.42 1.32 51 1018.5
20260506232532 5 211 3.2 14.5 0.00 1.42 1.32 52 1018.5
20260506232031 5 236 1.6 14.5 0.00 1.42 1.32 49 1018.4
20260506231543 5 237 3.2 14.5 0.00 1.42 1.32 53 1018.3
20260506231031 5 194 1.6 12.9 0.00 1.42 1.32 54 1018.2
20260506230531 5 214 1.6 16.1 0.00 1.42 1.32 53 1018.2
20260506230037 5 209 1.6 16.1 0.00 1.42 1.32 52 1018.1
20260506225535 5 202 1.6 12.9 0.00 1.45 1.32 54 1017.9
20260506225030 5 257 0.0 11.3 0.03 1.45 1.32 51 1018.0
20260506224530 5 264 0.0 9.7 0.03 1.45 1.32 55 1018.0
20260506224029 5 202 0.0 20.9 0.05 1.45 1.32 56 1017.9
20260506223529 5 211 3.2 20.9 0.05 1.45 1.32 55 1017.9
20260506223044 5 221 0.0 6.4 0.08 1.45 1.32 56 1017.9
20260506222529 5 277 0.0 14.5 0.10 1.45 1.32 54 1017.8
20260506222030 5 274 3.2 19.3 0.10 1.45 1.32 50 1017.8
20260506221529 5 269 1.6 11.3 0.13 1.45 1.32 55 1017.8
20260506221033 5 265 0.0 11.3 0.15 1.45 1.32 60 1017.9
20260506220532 5 234 0.0 4.8 0.18 1.45 1.32 59 1017.9
20260506220030 5 175 0.0 6.4 0.20 1.45 1.32 59 1017.9
20260506215534 5 206 0.0 17.7 0.23 1.52 1.32 53 1017.8
20260506215028 5 265 4.8 17.7 0.23 1.50 1.30 52 1017.8
20260506214528 5 199 0.0 9.7 0.25 1.50 1.30 56 1017.8
20260506214030 5 222 0.0 14.5 0.25 1.45 1.27 56 1017.8
20260506213527 6 268 4.8 17.7 0.28 1.45 1.27 48 1017.8
20260506213031 6 277 0.0 17.7 0.28 1.42 1.24 50 1017.9
20260506212527 6 28 0.0 14.5 0.28 1.42 1.22 53 1017.9
20260506212027 6 325 0.0 8.0 0.30 1.42 1.22 56 1017.8
20260506211537 6 194 0.0 12.9 0.28 1.40 1.19 54 1017.9
20260506211027 6 304 3.2 12.9 0.28 1.37 1.17 56 1017.9
20260506210526 6 236 0.0 1.6 0.28 1.35 1.14 59 1018.0
20260506210033 6 216 0.0 9.7 0.25 1.32 1.12 55 1018.1
20260506205525 6 268 1.6 9.7 0.25 1.45 1.09 55 1018.2
20260506205024 6 213 0.0 9.7 0.25 1.42 1.07 66 1018.2
20260506204524 6 204 0.0 9.7 0.20 1.40 1.02 59 1018.0
20260506204023 6 264 0.0 8.0 0.20 1.37 0.99 60 1018.0
20260506203522 6 273 0.0 8.0 0.23 1.37 0.99 64 1018.2
20260506203027 6 186 1.6 11.3 0.23 1.35 0.97 66 1018.2
20260506202521 5 285 3.2 11.3 0.20 1.32 0.94 61 1018.1
20260506202024 5 207 0.0 6.4 0.20 1.30 0.91 64 1018.1
20260506201531 5 200 0.0 1.6 0.23 1.30 0.91 67 1018.2
20260506201021 5 200 0.0 6.4 0.20 1.27 0.89 68 1018.2
20260506200520 5 200 0.0 6.4 0.20 1.24 0.86 66 1018.1
20260506200021 5 196 0.0 4.8 0.20 1.24 0.86 68 1018.1
20260506195520 6 178 0.0 0.0 0.20 1.68 0.84 65 1017.9
20260506195021 6 220 0.0 0.0 0.20 1.65 0.81 66 1018.0
20260506194526 6 220 0.0 6.4 0.20 1.65 0.81 68 1017.9
20260506194017 5 152 0.0 6.4 0.20 1.63 0.79 68 1017.9
20260506193517 5 157 0.0 6.4 0.20 1.60 0.76 65 1017.9
20260506193017 5 157 0.0 6.4 0.20 1.57 0.71 59 1017.9
20260506192516 5 287 0.0 1.6 0.23 1.57 0.71 69 1018.0
20260506192017 4 287 0.0 3.2 0.20 1.55 0.71 69 1017.9
20260506191517 3 287 0.0 3.2 0.20 1.52 0.69 66 1018.1
20260506191020 3 286 0.0 8.0 0.23 1.52 0.69 73 1018.2
20260506190520 3 286 0.0 8.0 0.23 1.50 0.66 74 1018.1
20260506190015 3 221 0.0 4.8 0.23 1.45 0.64 79 1018.2
20260506185515 2 224 0.0 3.2 0.23 1.68 0.64 77 1018.2
20260506185018 2 224 0.0 6.4 0.23 1.65 0.61 78 1018.2
20260506184514 2 224 0.0 6.4 0.23 1.63 0.58 76 1018.2
20260506184017 2 209 0.0 9.7 0.25 1.63 0.58 74 1018.0
20260506183514 3 209 1.6 9.7 0.25 1.60 0.56 71 1017.9
20260506183023 4 245 0.0 3.2 0.23 1.57 0.53 70 1017.9
20260506182512 5 250 0.0 0.0 0.23 1.55 0.51 67 1017.9
20260506182012 5 250 0.0 1.6 0.25 1.55 0.51 65 1018.0
20260506181512 5 227 0.0 1.6 0.25 1.52 0.48 65 1018.0
20260506181012 5 227 0.0 4.8 0.25 1.50 0.46 65 1018.0
20260506180511 5 227 0.0 4.8 0.25 1.45 0.43 65 1017.9
20260506180012 4 227 0.0 3.2 0.25 1.42 0.41 63 1018.0
20260506175510 3 200 0.0 8.0 0.28 1.57 0.41 69 1018.0
20260506175007 3 200 0.0 8.0 0.28 1.55 0.38 75 1018.0
20260506174510 3 66 0.0 0.0 0.28 1.52 0.36 76 1017.9
20260506174006 2 66 0.0 0.0 0.25 1.50 0.33 78 1017.9
20260506173506 2 66 0.0 0.0 0.25 1.45 0.30 77 1017.9
20260506173005 3 66 0.0 0.0 0.23 1.42 0.28 72 1017.8
20260506172504 3 66 0.0 0.0 0.23 1.42 0.25 73 1017.8
20260506172004 3 65 0.0 0.0 0.23 1.42 0.25 73 1017.7
20260506171503 3 65 0.0 0.0 0.20 1.40 0.23 74 1017.6
20260506171000 2 65 0.0 0.0 0.20 1.37 0.20 74 1017.6
20260506170600 2 65 0.0 0.0 0.18 1.35 0.18 75 1017.6
20260506170115 2 65 0.0 0.0 0.15 1.32 0.15 75 1017.5
20260506165559 2 65 0.0 0.0 0.13 1.40 0.13 77 1017.5
20260506165059 2 65 0.0 0.0 0.10 1.37 0.10 74 1017.5
20260506164601 2 65 0.0 0.0 0.08 1.35 0.08 72 1017.5
20260506164057 2 65 0.0 0.0 0.08 1.35 0.08 73 1017.5
20260506163600 2 65 0.0 0.0 0.05 1.32 0.05 78 1017.4
20260506163110 2 65 0.0 0.0 0.05 1.32 0.05 78 1017.3
20260506162555 2 65 0.0 0.0 0.03 1.30 0.03 77 1017.3
20260506162054 2 65 0.0 0.0 0.03 1.30 0.03 79 1017.1
20260506161552 1 65 0.0 0.0 0.03 1.30 0.03 83 1017.1
20260506161050 1 65 0.0 0.0 0.00 1.27 0.00 83 1017.0
20260506160549 0 65 0.0 0.0 0.00 1.27 0.00 85 1017.0